FW5354 Weather Reports


time (UTC)temp
F
wind
direction
speed
knots
gust
knots
rain 1hr
in
rain 24hr
in
rain mn
in
humidity
%
barometer
mb
20260504220045 80 107 2.6 9.6 0.00 0.00 0.00 60 1008.8
20260504214549 81 101 1.7 4.3 0.00 0.00 0.00 59 1009.0
20260504213048 81 101 0.9 4.3 0.00 0.00 0.00 58 1009.1
20260504211544 81 103 0.9 1.7 0.00 0.00 0.00 57 1009.3
20260504210053 82 110 0.0 3.5 0.00 0.00 0.00 57 1009.4
20260504204618 82 100 1.7 6.1 0.00 0.00 0.00 55 1009.8
20260504203040 83 98 0.0 0.9 0.00 0.00 0.00 54 1009.9
20260504201539 83 115 0.0 2.6 0.00 0.00 0.00 54 1010.2
20260504200038 82 105 0.0 2.6 0.00 0.00 0.00 54 1010.5
20260504194543 82 101 0.9 3.5 0.00 0.00 0.00 55 1010.7
20260504193032 83 105 0.9 3.5 0.00 0.00 0.00 53 1010.9
20260504191530 84 113 0.0 1.7 0.00 0.00 0.00 53 1011.0
20260504190033 82 104 0.0 2.6 0.00 0.00 0.00 57 1011.2
20260504184526 83 102 0.0 4.3 0.00 0.00 0.00 54 1011.5
20260504183027 82 115 0.0 3.5 0.00 0.00 0.00 54 1011.5
20260504181524 81 96 0.9 4.3 0.00 0.00 0.00 57 1011.6
20260504180018 81 104 0.0 4.3 0.00 0.00 0.00 55 1012.1
20260504174518 81 101 1.7 5.2 0.00 0.00 0.00 53 1012.2
20260504173015 79 107 0.0 4.3 0.00 0.00 0.00 56 1012.5
20260504171532 79 96 1.7 5.2 0.00 0.00 0.00 58 1012.6
20260504150104 75 103 0.0 2.6 0.00 0.00 0.00 63 1013.7
20260504081539 62 100 0.0 0.0 0.00 0.00 0.00 75 1014.0
20260504050018 65 100 0.0 0.0 0.00 0.00 0.00 68 1016.1
20260504044523 65 100 0.0 0.0 0.00 0.00 0.00 66 1016.1
20260504043016 66 100 0.0 0.9 0.00 0.00 0.00 64 1016.2
20260504041511 67 104 0.0 0.9 0.00 0.00 0.00 62 1016.3
20260504040010 67 105 0.9 3.5 0.00 0.00 0.00 61 1016.2
20260504034508 68 109 0.0 0.0 0.00 0.00 0.00 60 1016.3
20260504033007 68 99 0.0 0.0 0.00 0.00 0.00 59 1016.4
20260504031504 68 101 0.0 2.6 0.00 0.00 0.00 58 1016.2
20260504030002 69 103 0.0 0.0 0.00 0.00 0.00 57 1016.1
20260504024559 69 98 0.0 0.0 0.00 0.00 0.00 56 1015.8
20260504023057 70 103 0.0 0.0 0.00 0.00 0.00 54 1015.7
20260504021554 71 103 0.0 4.3 0.00 0.00 0.00 52 1015.8
20260504020056 71 105 0.9 4.3 0.00 0.00 0.00 51 1015.6
20260504014602 72 105 0.9 2.6 0.00 0.00 0.00 50 1015.5
20260504013052 73 103 0.9 5.2 0.00 0.00 0.00 49 1015.4
20260504011550 73 102 0.9 3.5 0.00 0.00 0.00 49 1015.3
20260504010048 74 87 0.0 4.3 0.00 0.00 0.00 48 1015.2
20260504004545 75 132 0.0 0.0 0.00 0.00 0.00 46 1015.2
20260504003049 75 105 0.0 0.0 0.00 0.00 0.00 43 1015.2
20260504001542 76 103 0.0 2.6 0.00 0.00 0.00 41 1015.1
20260504000036 78 106 0.9 4.3 0.00 0.00 0.00 40 1015.2
20260503234544 79 121 0.0 0.0 0.00 0.00 0.00 35 1015.4
20260503233034 80 109 0.0 1.7 0.00 0.00 0.00 34 1015.4
20260503231535 80 104 0.9 3.5 0.00 0.00 0.00 33 1015.5
20260503230040 81 97 0.0 3.5 0.00 0.00 0.00 34 1015.5
20260503224532 81 110 0.9 2.6 0.00 0.00 0.00 33 1015.7
20260503223032 80 102 0.0 3.5 0.00 0.00 0.00 34 1015.8
20260503221532 82 103 0.0 0.0 0.00 0.00 0.00 35 1016.0